World > North America > United States > North Dakota

Leroy, North Dakota Regional Weather

Lat: 48.92N, Lon: 97.75W
Wx Zone: NDZ008
Warning NWS WEATHER ALERT - (More Info. Click Here) Warning
Feedback

Leroy, ND Regional Weather

Expires:201910190800;;929787
ASUS43 KBIS 190710
RWRND 

NORTH DAKOTA REGIONAL WEATHER ROUNDUP
NATIONAL WEATHER SERVICE BISMARCK ND
200 AM CDT SAT OCT 19 2019

NOTE: "FAIR" INDICATES FEW OR NO CLOUDS BELOW 12,000 FEET WITH NO
SIGNIFICANT WEATHER AND/OR OBSTRUCTIONS TO VISIBILITY.



NDZ004>008-012>016-024-026-027-054-190800-
NORTHEAST NORTH DAKOTA
  
CITY           SKY/WX    TMP DP  RH WIND       PRES   REMARKS
GRAND FORKS    PTCLDY    46  39  76 SW8       29.48R                  
DEVILS LAKE    CLEAR     40  36  86 SW10      29.51S                  
$$
 

SKY/WX - Weather  TMP - Temperature  DP - Dew Point  RH - Relative Humidity
WIND - Wind Direction/Speed PRES - Barometric Pressure VSB - Visibility
WCI - Wind Chill Index E13G22 Wind - East Wind 13 mph/Gusts of 22 mph